• In Russia
  • List of Countries
  • For 7 days
  • Water Temperature
  • Satellite Maps
  • Weather Map
  • Weather Widgets
  • user-avatar
    Login

    Hourly Weather Elovka

    Today, 25 April, Thursday

    Time Temperature Precipitation Wind Pressure Humidity
    00:00 +2°C° 0 mm 1 mps 717 mmHg 36%
    01:00 +1°C° 0 mm 1 mps 716 mmHg 37%
    02:00 +1°C° 0 mm 1 mps 716 mmHg 39%
    03:00 0°C° 0 mm 1 mps 716 mmHg 40%
    04:00 0°C° 0 mm 1 mps 716 mmHg 41%
    05:00 +2°C° 0 mm 1 mps 717 mmHg 38%
    06:00 +4°C° 0 mm 1 mps 717 mmHg 34%
    07:00 +6°C° 0 mm 1 mps 717 mmHg 31%
    08:00 +8°C° 0 mm 1 mps 717 mmHg 30%
    09:00 +10°C° 0 mm 1 mps 717 mmHg 29%
    10:00 +13°C° 0 mm 1 mps 718 mmHg 27%
    11:00 +14°C° 0 mm 1 mps 717 mmHg 26%
    12:00 +15°C° 0 mm 1 mps 717 mmHg 24%
    13:00 +16°C° 0 mm 1 mps 717 mmHg 22%
    14:00 +15°C° 0 mm 1 mps 717 mmHg 23%
    15:00 +15°C° 0 mm 1 mps 716 mmHg 23%
    16:00 +15°C° 0 mm 1 mps 716 mmHg 23%
    17:00 +13°C° 0 mm 1 mps 716 mmHg 29%
    18:00 +10°C° 0 mm 1 mps 715 mmHg 34%
    19:00 +7°C° 0 mm 0 mps 715 mmHg 40%
    20:00 +7°C° 0 mm 1 mps 715 mmHg 42%
    21:00 +7°C° 0 mm 1 mps 715 mmHg 43%
    22:00 +6°C° 0 mm 1 mps 715 mmHg 45%
    23:00 +6°C° 0 mm 1 mps 715 mmHg 45%

    Tomorrow, 26 April, Friday

    Time Temperature Precipitation Wind Pressure Humidity
    00:00 +4°C° 0 mm 2 mps 714 mmHg 45%
    01:00 +4°C° 0 mm 2 mps 714 mmHg 45%
    02:00 +4°C° 0 mm 2 mps 714 mmHg 45%
    03:00 +4°C° 0 mm 2 mps 713 mmHg 45%
    04:00 +4°C° 0 mm 2 mps 713 mmHg 45%
    05:00 +5°C° 0 mm 3 mps 712 mmHg 45%
    06:00 +7°C° 0 mm 3 mps 712 mmHg 44%
    07:00 +7°C° 0 mm 4 mps 711 mmHg 44%
    08:00 +10°C° 0.1 mm 4 mps 711 mmHg 44%
    09:00 +11°C° 0.1 mm 4 mps 711 mmHg 44%
    10:00 +12°C° 0.1 mm 4 mps 711 mmHg 44%
    11:00 +12°C° 0.1 mm 4 mps 711 mmHg 45%
    12:00 +13°C° 0.1 mm 3 mps 711 mmHg 46%
    13:00 +13°C° 0.1 mm 3 mps 711 mmHg 47%
    14:00 +13°C° 0 mm 3 mps 711 mmHg 47%
    15:00 +12°C° 0 mm 4 mps 711 mmHg 47%
    16:00 +12°C° 0 mm 4 mps 711 mmHg 48%
    17:00 +10°C° 0 mm 3 mps 712 mmHg 55%
    18:00 +8°C° 0 mm 2 mps 712 mmHg 62%
    19:00 +8°C° 0 mm 1 mps 713 mmHg 69%
    20:00 +7°C° 0 mm 1 mps 713 mmHg 73%
    21:00 +6°C° 0 mm 1 mps 714 mmHg 76%
    22:00 +5°C° 0 mm 1 mps 714 mmHg 80%
    23:00 +5°C° 0 mm 1 mps 714 mmHg 81%

    Day after tomorrow, 27 April, Saturday

    Time Temperature Precipitation Wind Pressure Humidity
    00:00 +5°C° 0 mm 1 mps 714 mmHg 82%
    01:00 +4°C° 0 mm 0 mps 715 mmHg 83%
    02:00 +4°C° 0 mm 0 mps 715 mmHg 83%
    03:00 +3°C° 0 mm 0 mps 715 mmHg 83%
    04:00 +3°C° 0 mm 0 mps 715 mmHg 83%
    05:00 +6°C° 0 mm 1 mps 715 mmHg 74%
    06:00 +8°C° 0 mm 1 mps 715 mmHg 66%
    07:00 +10°C° 0 mm 1 mps 715 mmHg 58%
    08:00 +13°C° 0 mm 2 mps 715 mmHg 49%
    09:00 +15°C° 0 mm 2 mps 715 mmHg 41%
    10:00 +17°C° 0 mm 3 mps 715 mmHg 33%
    11:00 +18°C° 0 mm 3 mps 714 mmHg 31%
    12:00 +19°C° 0 mm 4 mps 714 mmHg 28%
    13:00 +20°C° 0 mm 4 mps 713 mmHg 26%
    14:00 +19°C° 0 mm 4 mps 713 mmHg 27%
    15:00 +19°C° 0 mm 3 mps 712 mmHg 27%
    16:00 +19°C° 0 mm 3 mps 712 mmHg 28%
    17:00 +17°C° 0.1 mm 3 mps 712 mmHg 37%
    18:00 +15°C° 0.1 mm 2 mps 712 mmHg 47%
    19:00 +12°C° 0.1 mm 1 mps 712 mmHg 56%
    20:00 +11°C° 0.2 mm 1 mps 713 mmHg 61%
    21:00 +10°C° 0.2 mm 1 mps 713 mmHg 66%
    22:00 +8°C° 0.2 mm 2 mps 713 mmHg 71%
    23:00 +9°C° 0 mm 1 mps 713 mmHg 73%

    28 April, Sunday

    Time Temperature Precipitation Wind Pressure Humidity
    00:00 +8°C° 0 mm 1 mps 713 mmHg 74%
    01:00 +7°C° 0 mm 0 mps 713 mmHg 75%
    02:00 +6°C° 0 mm 0 mps 712 mmHg 77%
    03:00 +5°C° 0 mm 0 mps 712 mmHg 80%
    04:00 +5°C° 0 mm 0 mps 712 mmHg 82%
    05:00 +8°C° 0 mm 1 mps 712 mmHg 75%
    06:00 +9°C° 0 mm 1 mps 712 mmHg 69%
    07:00 +11°C° 0 mm 1 mps 712 mmHg 63%
    08:00 +13°C° 0 mm 2 mps 711 mmHg 55%
    09:00 +15°C° 0 mm 2 mps 711 mmHg 47%
    10:00 +17°C° 0 mm 3 mps 711 mmHg 40%
    11:00 +18°C° 0 mm 3 mps 710 mmHg 36%
    12:00 +19°C° 0 mm 3 mps 710 mmHg 32%
    13:00 +20°C° 0 mm 3 mps 710 mmHg 28%
    14:00 +18°C° 0.1 mm 4 mps 710 mmHg 36%
    15:00 +14°C° 0.1 mm 5 mps 710 mmHg 43%
    16:00 +11°C° 0.1 mm 6 mps 711 mmHg 51%
    17:00 +8°C° 0.1 mm 7 mps 712 mmHg 57%
    18:00 +4°C° 0.1 mm 8 mps 713 mmHg 63%
    19:00 +1°C° 0.1 mm 8 mps 714 mmHg 69%
    20:00 0°C° 0.4 mm 8 mps 716 mmHg 69%
    21:00 -2°C° 0.4 mm 8 mps 717 mmHg 70%
    22:00 -4°C° 0.4 mm 8 mps 718 mmHg 70%
    23:00 -4°C° 0.1 mm 8 mps 719 mmHg 64%

    29 April, Monday

    Time Temperature Precipitation Wind Pressure Humidity
    00:00 -4°C° 0.1 mm 8 mps 720 mmHg 58%
    01:00 -4°C° 0.1 mm 7 mps 720 mmHg 52%
    02:00 -4°C° 0 mm 7 mps 721 mmHg 51%
    03:00 -5°C° 0 mm 6 mps 721 mmHg 51%
    04:00 -5°C° 0 mm 5 mps 722 mmHg 50%
    05:00 -5°C° 0 mm 5 mps 722 mmHg 49%
    06:00 -4°C° 0 mm 6 mps 723 mmHg 47%
    07:00 -4°C° 0 mm 6 mps 723 mmHg 45%
    08:00 -2°C° 0 mm 6 mps 723 mmHg 41%
    09:00 -1°C° 0 mm 6 mps 723 mmHg 37%
    10:00 +1°C° 0 mm 5 mps 723 mmHg 33%
    11:00 +2°C° 0 mm 5 mps 723 mmHg 30%
    12:00 +3°C° 0 mm 5 mps 723 mmHg 27%
    13:00 +5°C° 0 mm 5 mps 723 mmHg 24%
    14:00 +5°C° 0 mm 4 mps 722 mmHg 23%
    15:00 +5°C° 0 mm 3 mps 722 mmHg 23%
    16:00 +7°C° 0 mm 2 mps 722 mmHg 22%
    17:00 +5°C° 0 mm 2 mps 722 mmHg 26%
    18:00 +5°C° 0 mm 1 mps 722 mmHg 30%
    19:00 +2°C° 0 mm 0 mps 722 mmHg 34%
    20:00 +1°C° 0 mm 0 mps 722 mmHg 36%
    21:00 +1°C° 0 mm 0 mps 722 mmHg 37%
    22:00 0°C° 0 mm 0 mps 722 mmHg 38%
    23:00 +1°C° 0 mm 1 mps 722 mmHg 39%

    30 April, Tuesday

    Time Temperature Precipitation Wind Pressure Humidity
    00:00 +1°C° 0 mm 1 mps 722 mmHg 40%
    01:00 0°C° 0 mm 1 mps 721 mmHg 41%
    02:00 0°C° 0 mm 1 mps 721 mmHg 42%
    03:00 0°C° 0 mm 1 mps 721 mmHg 43%
    04:00 -1°C° 0 mm 1 mps 721 mmHg 44%
    05:00 +2°C° 0 mm 1 mps 721 mmHg 40%
    06:00 +3°C° 0 mm 2 mps 720 mmHg 35%
    07:00 +5°C° 0 mm 2 mps 720 mmHg 31%
    08:00 +7°C° 0 mm 2 mps 720 mmHg 29%
    09:00 +10°C° 0 mm 2 mps 720 mmHg 27%
    10:00 +12°C° 0 mm 3 mps 719 mmHg 25%
    11:00 +14°C° 0 mm 3 mps 719 mmHg 24%
    12:00 +16°C° 0 mm 3 mps 718 mmHg 22%
    13:00 +18°C° 0 mm 3 mps 717 mmHg 21%
    14:00 +18°C° 0 mm 2 mps 717 mmHg 21%
    15:00 +18°C° 0 mm 2 mps 716 mmHg 20%
    16:00 +18°C° 0 mm 2 mps 716 mmHg 20%
    17:00 +16°C° 0 mm 1 mps 716 mmHg 26%
    18:00 +13°C° 0 mm 1 mps 715 mmHg 31%
    19:00 +10°C° 0 mm 0 mps 715 mmHg 36%
    20:00 +9°C° 0 mm 0 mps 715 mmHg 38%
    21:00 +8°C° 0 mm 0 mps 715 mmHg 40%
    22:00 +7°C° 0 mm 0 mps 715 mmHg 42%
    23:00 +7°C° 0 mm 1 mps 715 mmHg 42%
    Show more